Weather in Verkhnebeloye

Russia / Amur Oblast     50°36′30″N   128°55′28″E
temp.,
°C
wind,
m/s
gust,
m/s
humid.,
%
clouds,
%
prec.,
mm/h
press.,
hPa
HPBL,
m
23 may, mon
mon2300:00+15s71638100 0.0 1002635
03:00+13sse91545100 0.4 1002507
06:00+12sse101763100 0.2 1002635
09:00+14sse101364100 0.4 1001978
12:00+21s6104197 0.7 9982262
15:00+17w0362100 13.9 998447
18:00+15sw1373100 8.3 1000276
21:00+9nnw598094 8.4 1003370
24 may, tue
tue2400:00+7nw378422 0.0 1004430
03:00+7wnw4785100 0.0 1004591
06:00+7wnw5884100 0.0 1005655
09:00+7nw61079100 0.0 1007808
12:00+7nw6986100 0.0 1009964
15:00+6nnw71086100 0.1 1011643
18:00+9n6137257 0.0 10121297
21:00+6nnw35791 0.0 101365
25 may, wed
wed2500:00+5n411740 0.0 1014286
03:00+4n410780 0.0 1015185
06:00+5n49750 0.0 1015225
09:00+12nne355453 0.0 1015381
12:00+17n334442 0.0 1013878
15:00+19n124019 0.0 10111306
18:00+19sse21455 0.0 1010609
21:00+14sse33565 0.0 101020
26 may, thu
thu2600:00+13ssw115752 0.0 100910
03:00+11wsw226477 0.0 100911
06:00+12ssw2367100 0.0 100947
09:00+18ssw2251100 0.0 1008410
12:00+21ssw3341100 0.0 10061011
15:00+23s333341 0.0 10042148
18:00+22se3443100 0.0 1003243
21:00+16s45593 0.0 100266
27 may, fri
fri2700:00+14sse346358 0.0 100241
03:00+12sse496920 0.0 1001146
06:00+12sse5107186 0.0 1000200
09:00+18sse575591 0.0 1000527
12:00+22s6749100 0.0 9991339
15:00+23sse6845100 0.0 9971960
18:00+21s6956100 0.0 997849
21:00+17sse6136679 0.0 997444